Waarnemingen

Advertentie
Mijn weer
Umeå Flygplats, Zweden (2286): temperatuur & dauwpunt: 13.10.2018 11:00:00 - 19.10.2018 11:00:00 (CEST)Umeå Flygplats, Zweden (2286): windsnelheid: 13.10.2018 11:00:00 - 19.10.2018 11:00:00 (CEST)Umeå Flygplats, Zweden (2286): windrichting: 13.10.2018 11:00:00 - 19.10.2018 11:00:00 (CEST)Umeå Flygplats, Zweden (2286): luchtdruk: 13.10.2018 11:00:00 - 19.10.2018 11:00:00 (CEST)Umeå Flygplats, Zweden (2286): zicht: 13.10.2018 11:00:00 - 19.10.2018 11:00:00 (CEST)
Datum & Tijd tt [°C] td [°C] ff [km/u] ff [kn] dd ppp [hPa] vv [km]
19.10.2018 11:00:00 8,9 2,8 24 13 NW 1014,7 10
19.10.2018 10:00:00 7,6 2,7 21 11 NW 1014,6 10
19.10.2018 09:00:00 6,5 2,2 26 14 WNW 1014,1 10
19.10.2018 08:00:00 5,9 1,8 18 10 W 1013,7 10
19.10.2018 07:00:00 5,6 1,7 11 6 W 1013,4 10
19.10.2018 06:00:00 4,1 1,3 11 6 WZW 1013,3 10
19.10.2018 05:00:00 3,8 1,5 13 7 ZZW 1013,1 10
19.10.2018 04:00:00 3,1 1,1 11 6 ZW 1013,3 10
19.10.2018 03:00:00 3,9 1,6 8 4 ZZW 1013,2 10
19.10.2018 02:00:00 4,1 1,6 15 8 ZZW 1013,0 10
19.10.2018 01:00:00 4,0 1,7 13 7 ZW 1012,8 10
19.10.2018 00:00:00 4,0 1,5 13 7 ZZW 1012,5 10
18.10.2018 23:00:00 5,4 1,7 11 6 WZW 1012,2 10
18.10.2018 22:00:00 4,9 1,9 9 5 ZW 1012,1 10
18.10.2018 21:00:00 5,2 1,7 11 6 ZW 1011,7 10
18.10.2018 20:00:00 6,5 2,0 11 6 ZW 1011,2 10
18.10.2018 19:00:00 7,2 1,9 11 6 WZW 1011,2 10
18.10.2018 18:00:00 7,0 1,9 13 7 ZW 1010,8 10
18.10.2018 17:00:00 8,4 1,8 11 6 WZW 1010,7 10
18.10.2018 16:00:00 9,9 2,3 18 10 W 1010,8 10
18.10.2018 15:00:00 10,5 2,3 21 11 W 1010,4 10
18.10.2018 14:00:00 11,0 2,8 22 12 W 1010,5 10
18.10.2018 13:00:00 10,7 3,9 15 8 W 1010,5 10
18.10.2018 12:00:00 9,7 4,5 11 6 W 1010,9 10
18.10.2018 11:00:00 8,8 5,5 5 3 WZW 1011,0 10
18.10.2018 10:00:00 6,8 5,4 8 4 W 1010,8 10
18.10.2018 09:00:00 5,5 5,1 5 3 NW 1010,6 10
18.10.2018 08:00:00 4,1 4,1 4 2 - 1010,3 10
18.10.2018 07:00:00 4,1 4,1 4 2 WZW 1010,0 10
18.10.2018 06:00:00 4,1 4,1 0 0 N 1010,1 10
18.10.2018 05:00:00 2,4 2,4 0 0 N 1010,2 0,4
18.10.2018 04:00:00 2,6 2,6 4 2 ZO 1010,3 0,2
18.10.2018 03:00:00 2,8 2,8 2 1 ZZW 1010,2 0,1
18.10.2018 02:00:00 4,1 4,1 5 3 ZO 1009,7 0,3
18.10.2018 01:00:00 6,2 6,2 5 3 ZO 1009,7 0,6
18.10.2018 00:00:00 5,3 5,3 5 3 ZZO 1009,6 0,3
17.10.2018 23:00:00 6,8 6,8 5 3 ZO 1009,6 3,0
17.10.2018 22:00:00 7,2 7,2 4 2 Z 1009,4 8
17.10.2018 21:00:00 8,4 8,3 4 2 ZW 1009,6 10
17.10.2018 20:00:00 8,5 8,4 5 3 ZZW 1009,5 10
17.10.2018 19:00:00 8,6 8,3 11 6 ZW 1009,5 10
17.10.2018 18:00:00 8,4 8,3 11 6 ZW 1009,8 10
17.10.2018 17:00:00 8,3 8,0 8 4 Z 1009,9 10
17.10.2018 16:00:00 8,6 8,3 11 6 ZZW 1010,4 10
17.10.2018 15:00:00 8,5 8,5 16 9 ZZW 1010,5 8
17.10.2018 14:00:00 8,5 8,5 18 10 Z 1010,6 2,4
17.10.2018 13:00:00 8,8 8,8 18 10 Z 1010,9 2,6
17.10.2018 12:00:00 9,1 9,1 16 9 Z 1012,1 5
17.10.2018 11:00:00 8,6 8,6 13 7 Z 1012,8 3,1
17.10.2018 10:00:00 7,9 7,9 15 8 Z 1013,4 5
17.10.2018 09:00:00 7,3 7,3 11 6 Z 1014,1 4,0
17.10.2018 08:00:00 6,9 6,9 13 7 ZZO 1014,6 10
17.10.2018 07:00:00 2,7 2,7 4 2 Z 1015,4 10
17.10.2018 06:00:00 1,2 1,2 0 0 N 1016,0 10
17.10.2018 05:00:00 0,8 0,8 2 1 ZO 1016,7 4,0
17.10.2018 04:00:00 0,2 0,2 2 1 W 1017,2 0,5
17.10.2018 03:00:00 0,3 0,3 0 0 N 1017,6 -
17.10.2018 02:00:00 -0,1 -0,1 2 1 - 1018,2 10
17.10.2018 01:00:00 -0,7 -0,7 2 1 - 1018,4 2,6
17.10.2018 00:00:00 -1,1 -1,1 2 1 WZW 1018,8 10
16.10.2018 23:00:00 -0,7 -0,7 4 2 NNW 1018,7 10
16.10.2018 22:00:00 -0,4 -0,4 0 0 N 1019,4 10
16.10.2018 21:00:00 0,8 0,8 5 3 - 1019,2 1,6
16.10.2018 20:00:00 1,6 1,6 2 1 ZZO 1019,4 10
16.10.2018 19:00:00 2,3 1,7 0 0 N 1019,0 10
16.10.2018 18:00:00 4,7 3,8 5 3 ZO 1018,9 10
16.10.2018 17:00:00 8,2 5,3 8 4 ZZW 1018,8 10
16.10.2018 16:00:00 9,8 5,6 4 2 ZZW 1018,0 10
16.10.2018 15:00:00 9,6 5,1 7 4 W 1018,0 50
16.10.2018 14:00:00 9,6 5,0 11 6 NW 1017,8 10
16.10.2018 13:00:00 9,6 4,8 11 6 WNW 1017,6 10
16.10.2018 12:00:00 9,0 4,6 9 5 WNW 1017,5 10
16.10.2018 11:00:00 7,5 4,8 16 9 WNW 1016,8 10
16.10.2018 10:00:00 6,9 4,6 13 7 WNW 1016,0 10
16.10.2018 09:00:00 4,4 4,3 5 3 WNW 1015,4 10
16.10.2018 08:00:00 2,8 2,5 5 3 W 1014,6 10
16.10.2018 07:00:00 4,9 4,3 8 4 NW 1014,0 10
16.10.2018 06:00:00 5,7 5,3 8 4 NW 1013,3 10
16.10.2018 05:00:00 6,0 6,0 0 0 N 1012,7 10
16.10.2018 04:00:00 6,2 6,1 4 2 WZW 1012,6 10
16.10.2018 03:00:00 6,7 6,6 5 3 W 1012,5 10
16.10.2018 02:00:00 6,9 6,9 5 3 WNW 1012,2 10
16.10.2018 01:00:00 6,9 6,9 5 3 NW 1011,6 10
16.10.2018 00:00:00 7,2 7,2 5 3 WNW 1011,6 10
15.10.2018 23:00:00 7,5 7,4 4 2 WNW 1011,8 10
15.10.2018 22:00:00 7,8 7,5 5 3 NNW 1011,7 10
15.10.2018 21:00:00 8,1 8,0 4 2 NNW 1011,8 7
15.10.2018 20:00:00 8,4 8,1 8 4 NNW 1012,0 9
15.10.2018 19:00:00 8,6 8,5 5 3 NNW 1012,0 10
15.10.2018 18:00:00 8,5 8,1 4 2 N 1012,3 10
15.10.2018 17:00:00 8,9 7,8 5 3 NNW 1011,8 10
15.10.2018 16:00:00 9,3 7,7 8 4 NNW 1012,5 10
15.10.2018 15:00:00 9,6 8,2 8 4 N 1012,4 10
15.10.2018 14:00:00 10,6 9,0 5 3 NW 1012,2 10
15.10.2018 13:00:00 10,7 9,5 8 4 NNW 1011,5 10
15.10.2018 12:00:00 9,9 9,0 0 0 N 1011,3 10
15.10.2018 11:00:00 9,4 8,5 0 0 N 1010,4 10
15.10.2018 10:00:00 9,5 8,4 4 2 - 1009,6 10
15.10.2018 09:00:00 8,6 8,0 5 3 ZZW 1008,6 10
15.10.2018 08:00:00 8,0 7,6 8 4 Z 1007,8 10
15.10.2018 07:00:00 8,6 7,8 13 7 Z 1007,4 10
15.10.2018 06:00:00 9,1 8,3 15 8 Z 1006,8 10
15.10.2018 05:00:00 9,4 8,5 21 11 Z 1006,7 10
15.10.2018 04:00:00 9,5 8,6 16 9 ZZW 1006,6 10
15.10.2018 03:00:00 9,7 8,6 24 13 Z 1006,5 10
15.10.2018 02:00:00 9,8 8,7 22 12 Z 1006,9 10
15.10.2018 01:00:00 10,1 8,7 21 11 Z 1007,2 10
15.10.2018 00:00:00 10,0 8,4 18 10 Z 1007,8 10
14.10.2018 23:00:00 9,9 8,7 15 8 Z 1008,4 10
14.10.2018 22:00:00 10,4 8,8 18 10 Z 1008,6 10
14.10.2018 21:00:00 10,5 8,8 16 9 Z 1008,7 10
14.10.2018 20:00:00 10,9 9,0 21 11 Z 1009,0 10
14.10.2018 19:00:00 10,6 9,0 13 7 Z 1009,2 10
14.10.2018 18:00:00 10,7 9,3 16 9 Z 1009,9 10
14.10.2018 17:00:00 11,2 9,5 15 8 Z 1010,2 10
14.10.2018 16:00:00 12,3 10,2 24 13 Z 1010,2 10
14.10.2018 15:00:00 12,3 10,4 24 13 Z 1010,4 10
14.10.2018 14:00:00 13,0 10,9 28 15 Z 1010,3 10
14.10.2018 13:00:00 13,1 11,2 24 13 ZZW 1010,8 10
14.10.2018 12:00:00 13,4 11,5 21 11 Z 1011,2 10
14.10.2018 11:00:00 13,1 11,3 21 11 Z 1011,1 10
14.10.2018 10:00:00 12,8 11,2 18 10 ZZW 1010,9 10
14.10.2018 09:00:00 11,7 10,8 22 12 Z 1010,5 10
14.10.2018 08:00:00 11,4 10,6 18 10 Z 1010,6 10
14.10.2018 07:00:00 11,3 10,7 22 12 ZZW 1010,5 10
14.10.2018 06:00:00 11,3 10,5 21 11 Z 1010,8 10
14.10.2018 05:00:00 11,2 10,4 21 11 Z 1010,9 10
14.10.2018 04:00:00 11,2 10,6 21 11 Z 1010,9 10
14.10.2018 03:00:00 11,1 10,5 16 9 Z 1011,4 10
14.10.2018 02:00:00 11,3 10,5 21 11 Z 1011,5 10
14.10.2018 01:00:00 12,0 11,1 22 12 ZZW 1011,7 10
14.10.2018 00:00:00 12,0 11,1 28 15 Z 1011,8 10
13.10.2018 23:00:00 12,2 11,3 18 10 ZZW 1011,9 10
13.10.2018 22:00:00 11,5 10,7 18 10 Z 1012,3 10
13.10.2018 21:00:00 11,1 10,5 15 8 Z 1012,7 10
13.10.2018 20:00:00 10,8 10,2 13 7 ZZW 1012,9 9
13.10.2018 19:00:00 10,5 9,9 16 9 ZZW 1013,0 9
13.10.2018 18:00:00 10,5 9,9 21 11 ZZW 1013,0 7
13.10.2018 17:00:00 10,6 10,0 22 12 ZZW 1013,2 7
13.10.2018 16:00:00 10,7 9,9 22 12 ZZW 1013,3 7
13.10.2018 15:00:00 11,1 10,3 26 14 ZZW 1013,5 7
13.10.2018 14:00:00 11,2 10,3 21 11 ZZW 1013,5 8
13.10.2018 13:00:00 11,5 10,4 24 13 ZZW 1013,4 10
13.10.2018 12:00:00 11,3 10,4 22 12 ZZW 1013,2 10
13.10.2018 11:00:00 11,0 10,5 18 10 Z 1013,3 7

tt = temperatuur
td = dauwpunt
ff = windsnelheid
dd = windrichting
ppp = luchtdruk
vv = zicht

Weerstations in de omgeving